Simultaneous Nadir Overpasses (SNOs) Predictions

Prediction of SNOs between GOES-16 and NOAA-19 Satellite Orbit:

Table of predicted SNOs for the next 14.0 days since TLE Epoch: 12/17/2022
Index Date Time (GOES-16) GOES-16 Lat,Lon NOAA-19 Lat,Lon Distance(km) Time Diff (sec)
1 12/17/2022 13:11:42 -0.05, -75.20 -0.07, -75.07 14.33 80
2 12/18/2022 12:59:48 -0.05, -75.21 -0.77, -72.18 346.27 80
3 12/21/2022 01:22:59 0.05, -75.20 -0.37, -77.04 209.85 80
4 12/22/2022 01:08:23 0.05, -75.20 0.29, -74.13 122.40 80
5 12/23/2022 00:56:28 0.04, -75.21 0.95, -71.22 454.68 80
6 12/24/2022 13:31:21 -0.04, -75.24 0.84, -78.94 423.41 80
7 12/25/2022 13:19:27 -0.03, -75.25 0.13, -76.05 91.02 80
8 12/26/2022 13:04:51 -0.03, -75.25 -0.51, -73.14 241.64 80
9 12/29/2022 01:28:00 0.03, -75.27 -0.58, -78.00 311.24 80
10 12/30/2022 01:13:25 0.02, -75.28 0.09, -75.09 22.48 80
